Tehachapi, CA

8:32 AM PDT on April 24, 2018 (GMT -0700)
Tehachapi Municipal

Weather History for KTSP - January, 2012

Change the Weather History Date:

Sunday, January 22, 2012

  Actual Average Record
Temperature  
Mean Temperature 38 °F -  
Max Temperature 50 °F 52 °F 64 °F (2014)
Min Temperature 26 °F 31 °F 26 °F (2012)
Degree Days  
Heating Degree Days 27    
Moisture  
Dew Point 27 °F    
Average Humidity 68    
Maximum Humidity 100    
Minimum Humidity 22    
Precipitation  
Precipitation 0.00 in - - ()
Sea Level Pressure  
Sea Level Pressure 30.12 in    
Wind  
Wind Speed 7 mph (NW)    
Max Wind Speed 22 mph    
Max Gust Speed 30 mph    
Visibility 9 miles    
Events Rain    
Averages and records for this station are not official NWS values.
T = Trace of Precipitation, MM = Missing Value Source: NWS Daily Summary

Daily Weather History Graph

Daily Weather History Graph

Search for Another Location

Airport or City:

Astronomy

Jan. 22, 2012 Rise Set
Actual Time 6:59 AM PST 5:11 PM PST
Civil Twilight 6:31 AM PST 5:38 PM PST
Nautical Twilight 6:01 AM PST 6:09 PM PST
Astronomical Twilight 5:30 AM PST 6:39 PM PST
Moon 6:19 AM PST (1/22) 4:58 PM PST (1/22)
Length of Visible Light 11h 06m
Length of Day
10h 12m
Waning Crescent, 0% of the Moon is Illuminated
Jan 22
Waning Crescent
Jan 22
New
Jan 30
First Quarter
Feb 7
Full
Feb 14
Last Quarter

Hourly Weather History & Observations

Time (PST) Temp. Windchill Dew Point Humidity Pressure Visibility Wind Dir Wind Speed Gust Speed Precip Events Conditions
12:15 AM 32.0 °F 23.6 °F 32.0 °F 100% 30.11 in 9.0 mi NNW 10.4 mph - N/A   Clear
12:35 AM 32.0 °F 25.6 °F 32.0 °F 100% 30.12 in 8.0 mi North 6.9 mph - N/A   Clear
12:55 AM 32.0 °F 26.4 °F 32.0 °F 100% 30.13 in 10.0 mi NNW 5.8 mph - N/A   Clear
1:15 AM 32.0 °F - 30.2 °F 93% 30.13 in 8.0 mi Calm Calm - N/A   Clear
1:35 AM 32.0 °F - 30.2 °F 93% 30.14 in 7.0 mi Calm Calm - N/A   Clear
1:55 AM 30.2 °F 26.7 °F 28.4 °F 93% 30.14 in 8.0 mi East 3.5 mph - N/A   Clear
2:15 AM 28.4 °F - 28.4 °F 100% 30.13 in 8.0 mi Calm Calm - N/A   Clear
2:35 AM 26.6 °F 22.6 °F 26.6 °F 100% 30.14 in 10.0 mi West 3.5 mph - N/A   Clear
2:55 AM 28.4 °F 24.6 °F 28.4 °F 100% 30.13 in 7.0 mi North 3.5 mph - N/A   Clear
3:15 AM 28.4 °F - 26.6 °F 93% 30.12 in 10.0 mi Calm Calm - N/A   Clear
3:35 AM 26.6 °F - 26.6 °F 100% 30.12 in 7.0 mi Calm Calm - N/A   Clear
4:15 AM 28.4 °F - 28.4 °F 100% 30.12 in 9.0 mi Calm Calm - N/A   Clear
4:35 AM 28.4 °F - 26.6 °F 93% 30.12 in 8.0 mi Calm Calm - N/A   Clear
4:55 AM 28.4 °F 24.6 °F 28.4 °F 100% 30.13 in 8.0 mi SE 3.5 mph - N/A   Clear
5:15 AM 28.4 °F - 28.4 °F 100% 30.12 in 9.0 mi Calm Calm - N/A   Clear
5:35 AM 28.4 °F - 26.6 °F 93% 30.11 in 8.0 mi Calm Calm - N/A   Clear
5:55 AM 28.4 °F 24.6 °F 28.4 °F 100% 30.11 in 8.0 mi West 3.5 mph - N/A   Clear
6:15 AM 30.2 °F - 28.4 °F 93% 30.12 in 9.0 mi Calm Calm - N/A   Clear
6:35 AM 32.0 °F 28.7 °F 28.4 °F 87% 30.12 in 10.0 mi WNW 3.5 mph - N/A   Clear
6:55 AM 32.0 °F 21.6 °F 26.6 °F 80% 30.12 in 10.0 mi NW 15.0 mph - N/A   Clear
7:15 AM 32.0 °F 21.6 °F 26.6 °F 80% 30.13 in 9.0 mi NNW 15.0 mph - N/A   Clear
7:35 AM 33.8 °F 24.8 °F 26.6 °F 75% 30.13 in 9.0 mi NW 12.7 mph - N/A   Clear
7:55 AM 33.8 °F 25.3 °F 26.6 °F 75% 30.14 in 9.0 mi NW 11.5 mph - N/A   Clear
8:15 AM 35.6 °F 27.5 °F 26.6 °F 70% 30.15 in 9.0 mi NW 11.5 mph - N/A   Clear
8:35 AM 35.6 °F 29.9 °F 28.4 °F 75% 30.16 in 9.0 mi NW 6.9 mph - N/A   Clear
8:55 AM 37.4 °F 34.9 °F 28.4 °F 70% 30.16 in 9.0 mi West 3.5 mph - N/A   Clear
9:15 AM 39.2 °F 35.0 °F 26.6 °F 61% 30.17 in 10.0 mi NW 5.8 mph - N/A   Clear
9:35 AM 39.2 °F 34.2 °F 28.4 °F 65% 30.18 in 9.0 mi NW 6.9 mph - N/A   Clear
9:55 AM 39.2 °F 34.2 °F 26.6 °F 61% 30.17 in 10.0 mi NW 6.9 mph - N/A   Clear
10:15 AM 39.2 °F 34.2 °F 26.6 °F 61% 30.16 in 10.0 mi NW 6.9 mph - N/A   Clear
10:35 AM 39.2 °F 33.0 °F 26.6 °F 61% 30.16 in 10.0 mi NW 9.2 mph - N/A   Clear
11:15 AM 42.8 °F 36.2 °F 23.0 °F 46% 30.14 in 10.0 mi NW 12.7 mph - N/A   Clear
11:35 AM 44.6 °F 39.7 °F 19.4 °F 37% 30.12 in 10.0 mi NW 9.2 mph - N/A   Clear
11:55 AM 44.6 °F 40.2 °F 19.4 °F 37% 30.12 in 10.0 mi NW 8.1 mph - N/A   Clear
12:15 PM 48.2 °F - 19.4 °F 32% 30.11 in 9.0 mi WNW 11.5 mph - N/A   Clear
12:35 PM 50.0 °F - 15.8 °F 26% 30.11 in 8.0 mi West 12.7 mph 20.7 mph N/A   Clear
12:55 PM 50.0 °F - 12.2 °F 22% 30.11 in 9.0 mi West 16.1 mph 21.9 mph N/A   Clear
1:15 PM 50.0 °F - 23.0 °F 35% 30.10 in 9.0 mi NW 13.8 mph 24.2 mph N/A   Clear
1:55 PM 50.0 °F - 21.2 °F 32% 30.09 in 9.0 mi NW 12.7 mph 18.4 mph N/A   Clear
2:15 PM 50.0 °F - 24.8 °F 37% 30.09 in 10.0 mi NW 15.0 mph - N/A   Clear
2:35 PM 50.0 °F - 24.8 °F 37% 30.10 in 10.0 mi NW 16.1 mph - N/A   Clear
3:15 PM 50.0 °F - 30.2 °F 47% 30.10 in 9.0 mi WNW 19.6 mph 29.9 mph N/A   Clear
3:35 PM 50.0 °F - 28.4 °F 43% 30.10 in 9.0 mi NW 21.9 mph 28.8 mph N/A   Clear
3:55 PM 48.2 °F - 32.0 °F 54% 30.11 in 9.0 mi NW 13.8 mph 19.6 mph N/A   Clear
4:15 PM 44.6 °F 38.8 °F 32.0 °F 61% 30.10 in 9.0 mi NW 11.5 mph - N/A   Clear
4:35 PM 44.6 °F 38.8 °F 32.0 °F 61% 30.11 in 9.0 mi WNW 11.5 mph 16.1 mph N/A   Clear
4:55 PM 42.8 °F 35.8 °F 30.2 °F 61% 30.11 in 9.0 mi NW 13.8 mph - N/A   Clear
5:15 PM 42.8 °F 36.2 °F 28.4 °F 57% 30.11 in 9.0 mi NW 12.7 mph - N/A   Clear
5:35 PM 41.0 °F 36.4 °F 28.4 °F 61% 30.11 in 10.0 mi NW 6.9 mph - N/A   Clear
5:55 PM 42.8 °F 37.0 °F 28.4 °F 57% 30.11 in 10.0 mi WNW 10.4 mph - N/A   Clear
6:15 PM 41.0 °F 33.9 °F 28.4 °F 61% 30.10 in 10.0 mi NW 12.7 mph - N/A   Clear
6:35 PM 41.0 °F 35.8 °F 26.6 °F 57% 30.10 in 10.0 mi WNW 8.1 mph - N/A   Clear
6:55 PM 42.8 °F 35.8 °F 26.6 °F 53% 30.13 in 10.0 mi WNW 13.8 mph - N/A   Clear
7:15 PM 41.0 °F 35.2 °F 26.6 °F 57% 30.12 in 7.0 mi NW 9.2 mph - N/A Rain Light Rain
7:35 PM 41.0 °F 34.7 °F 24.8 °F 53% 30.11 in 10.0 mi WNW 10.4 mph - N/A   Clear
7:55 PM 39.2 °F 32.0 °F 23.0 °F 52% 30.11 in 10.0 mi WNW 11.5 mph - N/A   Clear
8:15 PM 39.2 °F 32.0 °F 23.0 °F 52% 30.11 in 10.0 mi WNW 11.5 mph - N/A   Clear
8:35 PM 39.2 °F 34.2 °F 23.0 °F 52% 30.11 in 10.0 mi WNW 6.9 mph - N/A   Clear
8:55 PM 35.6 °F - 24.8 °F 65% 30.11 in 10.0 mi Calm Calm - N/A   Clear
9:15 PM 37.4 °F - 24.8 °F 60% 30.10 in 10.0 mi Calm Calm - N/A   Clear
9:35 PM 35.6 °F - 26.6 °F 70% 30.10 in 10.0 mi Calm Calm - N/A   Clear
9:55 PM 37.4 °F - 28.4 °F 70% 30.09 in 10.0 mi Calm Calm - N/A   Clear
10:15 PM 37.4 °F 34.9 °F 28.4 °F 70% 30.09 in 10.0 mi NW 3.5 mph - N/A   Clear
10:35 PM 41.0 °F - 28.4 °F 61% 30.08 in 10.0 mi Calm Calm - N/A   Clear
10:55 PM 41.0 °F 39.0 °F 28.4 °F 61% 30.08 in 10.0 mi West 3.5 mph - N/A   Clear
11:15 PM 41.0 °F 37.1 °F 28.4 °F 61% 30.07 in 10.0 mi West 5.8 mph - N/A   Clear
11:35 PM 39.2 °F 35.0 °F 28.4 °F 65% 30.07 in 10.0 mi WSW 5.8 mph - N/A   Clear